Weather History for Seward, AK

Change the Weather History Date:

Wednesday, January 1, 2014

  Actual Average Record
Temperature  
Mean Temperature 38 °F -  
Max Temperature 42 °F 29 °F 44 °F (1987)
Min Temperature 33 °F 20 °F 1 °F (1975)
Degree Days  
Heating Degree Days 28    
Moisture  
Dew Point 34 °F    
Average Humidity 90    
Maximum Humidity 100    
Minimum Humidity 66    
Precipitation  
Precipitation 0.72 in - - ()
Sea Level Pressure  
Sea Level Pressure 29.26 in    
Wind  
Wind Speed 7 mph (South)    
Max Wind Speed 23 mph    
Max Gust Speed 36 mph    
Visibility 8 miles    
Events Rain    
Averages and records for this station are not official NWS values.
T = Trace of Precipitation, MM = Missing Value Source: NWS Daily Summary

Daily Weather History Graph

Daily Weather History Graph

Search for Another Location

Airport:

Trip Planner

Search our weather history database for the weather conditions in past years. The results will help you decide how hot, cold, wet, or windy it might be!

Date:

Astronomy

Jan. 01, 2014 Rise Set
Actual Time 10:00 AM AKST 4:02 PM AKST
Civil Twilight 9:03 AM AKST 4:59 PM AKST
Nautical Twilight 8:07 AM AKST 5:55 PM AKST
Astronomical Twilight 7:15 AM AKST 6:47 PM AKST
Moon 9:36 AM AKST (1/1) 5:26 PM AKST (1/1)
Length of Visible Light 7h 55m
Length of Day
6h 01m
New Moon, 0% of the Moon is Illuminated
Jan 1
New Moon
Jan 7
First Quarter
Jan 15
Full
Jan 23
Last Quarter
Jan 30
New

Hourly Weather History & Observations

Time (AKST) Temp. Windchill Dew Point Humidity Pressure Visibility Wind Dir Wind Speed Gust Speed Precip Events Conditions
12:53 AM 35.1 °F 32.2 °F 34.0 °F 96% 29.26 in 8.0 mi Variable 3.5 mph - 0.03 in Rain Light Rain
1:53 AM 36.0 °F 32.1 °F 34.0 °F 93% 29.24 in 8.0 mi West 4.6 mph - 0.02 in Rain Light Rain
2:25 AM 37.4 °F 32.1 °F 35.6 °F 93% 29.22 in 4.0 mi Variable 6.9 mph - 0.04 in Rain Rain
3:08 AM 42.8 °F 35.4 °F 32.0 °F 66% 29.20 in 5.0 mi SSE 15.0 mph 35.7 mph 0.02 in Rain Rain
3:53 AM 42.1 °F 34.2 °F 33.1 °F 70% 29.18 in 9.0 mi SSE 16.1 mph 31.1 mph 0.04 in Rain Light Rain
4:53 AM 42.1 °F 32.6 °F 33.1 °F 70% 29.16 in 6.0 mi SSE 23.0 mph 32.2 mph 0.02 in Rain Light Rain
5:53 AM 41.0 °F 31.6 °F 35.1 °F 79% 29.17 in 9.0 mi South 20.7 mph 32.2 mph 0.06 in Rain Light Rain
6:01 AM 39.2 °F 29.8 °F 35.6 °F 87% 29.17 in 7.0 mi South 18.4 mph 34.5 mph 0.00 in Rain Light Rain
6:14 AM 41.0 °F 34.3 °F 35.6 °F 81% 29.17 in 5.0 mi SSE 11.5 mph 24.2 mph 0.01 in Rain Light Rain
6:41 AM 41.0 °F 36.4 °F 33.8 °F 76% 29.15 in 10.0 mi SSW 6.9 mph 23.0 mph 0.03 in Rain Light Rain
6:53 AM 41.0 °F 34.3 °F 34.0 °F 76% 29.17 in 9.0 mi South 11.5 mph 24.2 mph 0.03 in Rain Light Rain
7:03 AM 39.2 °F 29.6 °F 35.6 °F 87% 29.17 in 7.0 mi SSW 19.6 mph 28.8 mph 0.01 in Rain Light Rain
7:53 AM 39.9 °F 35.1 °F 35.1 °F 83% 29.16 in 8.0 mi ESE 6.9 mph 19.6 mph 0.05 in Rain Light Rain
8:07 AM 37.4 °F 32.8 °F 33.8 °F 87% 29.15 in 10.0 mi South 5.8 mph - 0.00 in Rain Light Rain
8:19 AM 39.2 °F 33.0 °F 33.8 °F 81% 29.14 in 5.0 mi South 9.2 mph 17.3 mph 0.02 in Rain Light Rain
8:49 AM 39.2 °F 34.2 °F 33.8 °F 81% 29.14 in 10.0 mi South 6.9 mph 18.4 mph 0.04 in Rain Light Rain
8:53 AM 39.9 °F 33.4 °F 34.0 °F 79% 29.14 in 10.0 mi SSE 10.4 mph 16.1 mph 0.04 in Rain Light Rain
9:26 AM 41.0 °F 33.9 °F 33.8 °F 76% 29.15 in 7.0 mi South 12.7 mph 23.0 mph 0.02 in Rain Light Rain
9:53 AM 39.0 °F 32.3 °F 34.0 °F 82% 29.16 in 6.0 mi ESE 10.4 mph 17.3 mph 0.04 in Rain Light Rain
10:51 AM 37.4 °F 29.8 °F 35.6 °F 93% 29.18 in 7.0 mi SSW 11.5 mph 16.1 mph 0.07 in Rain Light Rain
10:53 AM 37.0 °F 29.3 °F 35.1 °F 93% 29.18 in 6.0 mi South 11.5 mph - 0.07 in Rain Light Rain
11:04 AM 37.4 °F 31.4 °F 35.6 °F 93% 29.18 in 5.0 mi South 8.1 mph - 0.02 in Rain Rain
11:53 AM 35.1 °F 31.0 °F 33.1 °F 92% 29.20 in 10.0 mi WNW 4.6 mph - 0.09 in Rain Light Rain
12:53 PM 35.1 °F - 34.0 °F 96% 29.21 in 10.0 mi Calm Calm - 0.00 in   Overcast
1:53 PM 35.1 °F - 34.0 °F 96% 29.22 in 9.0 mi Calm Calm - 0.04 in Rain Light Rain
2:53 PM 35.1 °F 31.0 °F 34.0 °F 96% 29.23 in 5.0 mi West 4.6 mph - 0.05 in Rain Light Rain
3:03 PM 35.6 °F - 33.8 °F 93% 29.23 in 9.0 mi Calm Calm - 0.01 in Rain Light Rain
3:15 PM 35.6 °F 31.7 °F 33.8 °F 93% 29.23 in 8.0 mi ENE 4.6 mph - 0.01 in Rain Light Rain
3:49 PM 35.6 °F - 33.8 °F 93% 29.25 in 9.0 mi Calm Calm - 0.01 in Rain Light Rain
3:53 PM 35.1 °F 29.3 °F 34.0 °F 96% 29.25 in 8.0 mi Variable 6.9 mph - 0.02 in Rain Light Rain
4:53 PM 35.1 °F - 34.0 °F 96% 29.28 in 10.0 mi Calm Calm - 0.08 in Rain Light Rain
5:48 PM 33.8 °F 29.6 °F 33.8 °F 100% 29.31 in 8.0 mi North 4.6 mph - 0.01 in Rain Light Rain
5:53 PM 34.0 °F 29.8 °F 33.1 °F 96% 29.32 in 7.0 mi NNW 4.6 mph - 0.01 in Rain Light Rain
6:26 PM 33.8 °F - 33.8 °F 100% 29.33 in 6.0 mi Calm Calm - 0.02 in Rain Light Rain
6:53 PM 34.0 °F - 33.1 °F 96% 29.35 in 10.0 mi Calm Calm - 0.03 in   Overcast
7:09 PM 33.8 °F 30.8 °F 33.8 °F 100% 29.36 in 10.0 mi WNW 3.5 mph - N/A   Overcast
7:27 PM 33.8 °F - 33.8 °F 100% 29.36 in 10.0 mi Calm Calm - N/A   Overcast
7:45 PM 33.8 °F - 33.8 °F 100% 29.37 in 7.0 mi Calm Calm - N/A   Overcast
7:53 PM 34.0 °F - 33.1 °F 96% 29.37 in 5.0 mi Calm Calm - N/A   Overcast
8:14 PM 33.8 °F - 33.8 °F 100% 29.38 in 6.0 mi Calm Calm - N/A   Overcast
8:41 PM 33.8 °F 30.8 °F 33.8 °F 100% 29.39 in 8.0 mi NNW 3.5 mph - N/A   Overcast
8:53 PM 34.0 °F - 33.1 °F 96% 29.40 in 10.0 mi Calm Calm - N/A   Overcast
9:39 PM 33.8 °F - 32.0 °F 93% 29.42 in 7.0 mi Calm Calm - 0.00 in   Overcast
9:53 PM 34.0 °F - 33.1 °F 96% 29.43 in 6.0 mi Calm Calm - 0.00 in Rain Light Rain
10:26 PM 33.8 °F - 32.0 °F 93% 29.45 in 6.0 mi Calm Calm - 0.00 in Rain Light Rain
10:53 PM 34.0 °F 28.8 °F 33.1 °F 96% 29.47 in 7.0 mi NE 5.8 mph - 0.00 in Rain Light Rain
11:53 PM 34.0 °F - 33.1 °F 96% 29.50 in 9.0 mi Calm Calm - 0.00 in   Overcast